Hourly Data Report for October 20, 2003

SHERBROOKE A
QUEBEC

45°26'00.000" N
71°41'00.000" W
241.40 m
7028124
71610
YSC

Download Data

Hourly Data (October 2003)
Hourly Data Report for October 20, 2003
TIME
LST
Temp Definition
°C
Dew Point Definition
°C
Rel Hum Definition
%
Precip. Amount Definition
mm

Wind Dir Definition
10's deg

Wind Spd Definition
km/h
Visibility Definition
km
Stn Press Definition
kPa
Hmdx Definition


Wind Chill Definition


Weather Definition


00:00 -3.2 -5.2 86     0 15.0 99.01      
01:00 -3.1 -5.2 85     0 15.0 99.02      
02:00 -5.6 -7.5 86     0 15.0 98.99      
03:00 -6.1 -7.6 89     0 15.0 99.00      
04:00 -5.4 -7.1 88   3 4 15.0 99.00   -7  
05:00 -6.2 -7.6 90     0 15.0 99.02      
06:00 -5.3 -7.0 88     0 15.0 99.03      
07:00 -4.0 -5.5 89     0 24.1 99.03     Mostly Cloudy
08:00 -0.6 -2.2 89     0 24.1 99.02     Mostly Cloudy
09:00 2.0 -0.4 84     0 24.1 99.00     Mostly Cloudy
10:00 4.4 -1.5 65   24 11 24.1 98.92     Mostly Cloudy
11:00 5.1 -1.4 63   24 13 24.1 98.87     Cloudy
12:00 5.5 -2.6 56   24 17 24.1 98.78     Cloudy
13:00 5.5 -2.2 58   24 11 24.1 98.69     Cloudy
14:00 5.8 -2.3 56   24 20 24.1 98.64     Cloudy
15:00 5.7 -0.8 63   25 15 24.1 98.61     Cloudy
16:00 4.0 1.7 85   25 13 19.3 98.59     Rain
17:00 3.4 2.0 91   27 9 11.3 98.55     Rain
18:00 3.4 1.9 90   23 9 15.0 98.57     Rain
19:00 3.5 2.2 91   23 11 15.0 98.53     Rain
20:00 3.4 2.5 94   15 4 15.0 98.42     Drizzle
21:00 3.2 2.6 96     0 4.8 98.38     Rain
22:00 3.1 2.3 94   22 7 5.6 98.35     Moderate Rain
23:00 0.7 -0.2 94   13 4 2.4 98.25      

Notes on Data Quality.

Legend

  • E = Estimated
  • M = Missing
  • NA = Not Available*
  • [empty] = Indicates an unobserved value
Date modified: